REICHNBCH Weather Reports


time (UTC)temp
C
wind
direction
speed
KPH
gust
KPH
rain 1hr
cm
rain 24hr
cm
rain mn
cm
humidity
%
barometer
mb
20260504220209 14 89 0.0 0.0 0.00 0.00 0.00 74 1013.0
20260504213209 15 89 0.0 0.0 0.00 0.00 0.00 71 1013.2
20260504210209 16 0 4.8 0.0 0.00 0.00 0.00 67 1013.3
20260504203209 16 0 4.8 0.0 0.00 0.00 0.00 65 1013.5
20260504200209 16 0 4.8 0.0 0.00 0.00 0.00 64 1013.7
20260504193209 16 0 4.8 0.0 0.00 0.00 0.00 61 1013.4
20260504190209 16 0 4.8 0.0 0.00 0.00 0.00 63 1013.1
20260504183209 17 0 4.8 0.0 0.00 0.00 0.00 59 1012.9
20260504180214 18 5 16.1 0.0 0.00 0.00 0.00 57 1012.8
20260504173209 18 0 8.0 0.0 0.00 0.00 0.00 58 1012.5
20260504170210 19 0 8.0 0.0 0.00 0.00 0.00 53 1012.4
20260504160210 21 351 4.8 0.0 0.00 0.00 0.00 49 1012.4
20260504150210 22 331 9.7 0.0 0.00 0.00 0.00 42 1012.5
20260504140209 23 0 4.8 0.0 0.00 0.00 0.00 47 1012.9
20260504130215 21 345 11.3 0.0 0.00 0.00 0.00 52 1013.3
20260504120210 20 0 0.0 0.0 0.00 0.00 0.00 52 1014.0
20260504110210 20 332 3.2 0.0 0.00 0.00 0.00 56 1014.3
20260504100212 20 0 3.2 0.0 0.00 0.00 0.00 54 1014.8
20260504080210 16 0 4.8 0.0 0.00 0.00 0.00 65 1015.7
20260504070212 14 0 4.8 0.0 0.00 0.00 0.00 73 1015.7
20260504060212 11 0 4.8 0.0 0.00 0.00 0.00 80 1015.7
20260504050210 11 0 4.8 0.0 0.00 0.00 0.00 79 1015.7
20260504043211 11 0 4.8 0.0 0.00 0.00 0.00 76 1015.6
20260504040211 11 0 4.8 0.0 0.00 0.00 0.00 76 1015.6
20260504033211 11 0 4.8 0.0 0.00 0.00 0.00 74 1015.6
20260504030212 12 0 4.8 0.0 0.00 0.00 0.00 74 1015.6
20260504023211 12 0 4.8 0.0 0.00 0.00 0.00 72 1015.6
20260504020212 12 0 4.8 0.0 0.00 0.00 0.00 71 1015.5
20260504013211 13 0 4.8 0.0 0.00 0.00 0.00 70 1015.6
20260504010211 13 0 4.8 0.0 0.00 0.00 0.00 70 1015.5
20260504003210 13 0 4.8 0.0 0.00 0.00 0.00 67 1015.5
20260504000208 14 0 4.8 0.0 0.00 0.00 0.00 65 1015.6
20260503233209 14 0 4.8 0.0 0.00 0.00 0.00 63 1015.9
20260503230209 15 0 4.8 0.0 0.00 0.00 0.00 62 1016.1
20260503223210 15 0 4.8 0.0 0.00 0.00 0.00 59 1016.2